Location: Unspecified
(35.7250°N, 0.0000°E)
Time: 10:37:03
(UTC+00:00)

SR - Pass Details

Date: 26 June 2019
Orbit: 580 x 875 km, 66.7° (Epoch: 16 July)

Event Time Altitude Azimuth Distance (km) Brightness Sun altitude
Exits shadow 01:35:41 23° 94° (E) 1,245 ? -26.9°
Drops below altitude 10° 01:38:27 10° 55° (NE) 1,906 ? -26.7°
Sets 01:41:01 0° 41° (NE) 2,828 ? -26.5°
